Weather History for LIQC - February, 2013

Change the Weather History Date:

Tuesday, February 26, 2013

  Actual Average Record
Temperature  
Mean Temperature 46 °F -  
Max Temperature 50 °F - - ()
Min Temperature 42 °F - - ()
Degree Days  
Heating Degree Days 19    
Moisture  
Dew Point 44 °F    
Average Humidity 90    
Maximum Humidity 100    
Minimum Humidity 75    
Precipitation  
Precipitation 0.00 in - - ()
Sea Level Pressure  
Sea Level Pressure 30.05 in    
Wind  
Wind Speed 1 mph ()    
Max Wind Speed 4 mph    
Max Gust Speed -    
Visibility 5.9 miles    
Events Rain , Hail , Thunderstorm    
T = Trace of Precipitation, MM = Missing Value Source: Averaged Metar Reports

Daily Weather History Graph

Daily Weather History Graph

Search for Another Location

Airport or City:

Trip Planner

Search our weather history database for the weather conditions in past years. The results will help you decide how hot, cold, wet, or windy it might be!

Date:

Astronomy

Feb. 26, 2013 Rise Set
Actual Time 6:41 AM CET 5:51 PM CET
Civil Twilight 6:14 AM CET 6:18 PM CET
Nautical Twilight 5:42 AM CET 6:50 PM CET
Astronomical Twilight 5:10 AM CET 7:22 PM CET
Moon 6:50 PM CET (2/26) 6:34 AM CET (2/26)
Length of Visible Light 12h 04m
Length of Day
11h 09m
Full, 100% of the Moon is Illuminated
Feb 26
Full
Mar 4
Last Quarter
Mar 11
New
Mar 19
First Quarter
Mar 27
Full

Hourly Weather History & Observations

Time (CET) Temp. Windchill Dew Point Humidity Pressure Visibility Wind Dir Wind Speed Gust Speed Precip Events Conditions
12:55 AM 48.2 °F - 46.4 °F 93% 30.01 in 6.2 mi Variable 1.2 mph - N/A   Overcast
1:00 AM 48 °F - 46 °F 91% 30.02 in 6 mi 1.2 mph - -   Overcast
1:55 AM 48.2 °F - 46.4 °F 93% 30.01 in 6.2 mi Variable 1.2 mph - N/A   Overcast
4:00 AM 43 °F - 42 °F 92% 30.02 in 2 mi Calm Calm - - Rain Light Rain
5:55 AM 42.8 °F - 41.0 °F 93% 30.01 in 3.1 mi Calm Calm - N/A Rain Light Rain
6:55 AM 42.8 °F - 41.0 °F 93% 30.01 in 6.2 mi ENE 2.3 mph - N/A Rain Light Rain
7:00 AM 43 °F - 42 °F 93% 30.04 in 6 mi ENE 2.3 mph - -   Overcast
7:55 AM 42.8 °F - 41.0 °F 93% 30.01 in 6.2 mi Calm Calm - N/A Rain Light Rain
8:55 AM 42.8 °F - 41.0 °F 93% 30.01 in 6.2 mi ENE 2.3 mph - N/A Rain Light Rain
9:55 AM 44.6 °F - 42.8 °F 93% 30.04 in 6.2 mi ENE 2.3 mph - N/A   Scattered Clouds
10:00 AM 44 °F - 43 °F 95% 30.06 in 6 mi ENE 2.3 mph - - Rain Light Rain
10:55 AM 46.4 °F - 42.8 °F 87% 30.04 in 6.2 mi ENE 2.3 mph - N/A   Scattered Clouds
11:55 AM 48.2 °F - 42.8 °F 82% 30.04 in 6.2 mi Variable 1.2 mph - N/A   Scattered Clouds
12:55 PM 50.0 °F - 44.6 °F 82% 30.04 in 6.2 mi Variable 1.2 mph - N/A   Partly Cloudy
1:00 PM 50 °F - 44 °F 75% 30.06 in 6 mi 1.2 mph - -  
1:55 PM 50.0 °F - 44.6 °F 82% 30.04 in 6.2 mi Variable 1.2 mph - N/A   Partly Cloudy
2:55 PM 50.0 °F - 44.6 °F 82% 30.04 in 6.2 mi Calm Calm - N/A   Mostly Cloudy
3:55 PM 50.0 °F - 46.4 °F 87% 30.04 in 6.2 mi Variable 1.2 mph - N/A   Mostly Cloudy
4:00 PM 50 °F - 46 °F 80% 30.05 in 6 mi 1.2 mph - -   Mostly Cloudy
4:55 PM 50.0 °F - 46.4 °F 87% 30.04 in 6.2 mi Variable 1.2 mph - N/A   Scattered Clouds
5:55 PM 50.0 °F - 46.4 °F 87% 30.04 in 6.2 mi Calm Calm - N/A   Partly Cloudy
6:55 PM 48.2 °F - 46.4 °F 93% 30.04 in - Calm Calm - N/A   Clear
7:00 PM 47 °F - 46 °F 95% 30.07 in 12 mi Calm Calm - -  
7:55 PM 46.4 °F - 46.4 °F 100% 30.06 in 6.2 mi Variable 1.2 mph - N/A   Scattered Clouds
8:55 PM 48.2 °F - 44.6 °F 87% 30.06 in 6.2 mi Variable 1.2 mph - N/A   Partly Cloudy
9:55 PM 46.4 °F 45.2 °F 46.4 °F 100% 30.09 in 4.3 mi SE 3.5 mph - N/A Hail Hail
10:00 PM 46 °F - 46 °F 100% 30.12 in 2 mi SE 3.5 mph - - Hail Heavy Hail Showers
10:55 PM 44.6 °F - 44.6 °F 100% 30.09 in 6.2 mi Calm Calm - N/A   Scattered Clouds
11:32 PM 46.4 °F 45.2 °F 44.6 °F 93% 30.09 in 6.2 mi ENE 3.5 mph - N/A Thunderstorm Thunderstorm
11:55 PM 46.4 °F - 44.6 °F 93% 30.09 in 6.2 mi ENE 2.3 mph - N/A Thunderstorm Thunderstorm